Weather History for Peoria, IL

Change the Weather History Date:

Tuesday, July 9, 2013

  Actual Average Record
Temperature  
Mean Temperature 84 °F 76 °F  
Max Temperature 90 °F 86 °F 103 °F (1936)
Min Temperature 77 °F 66 °F 51 °F (1961)
Degree Days  
Heating Degree Days 0 0  
Month to date heating degree days 0 0  
Since 1 June heating degree days 18 18  
Since 1 July heating degree days 0 0  
Cooling Degree Days 19 11  
Month to date cooling degree days 88 97  
Year to date cooling degree days 418 400  
Since 1 June cooling degree days 311 319  
Growing Degree Days 34 (Base 50)    
Moisture  
Dew Point 74 °F    
Average Humidity 77    
Maximum Humidity 91    
Minimum Humidity 63    
Precipitation  
Precipitation 0.02 in 0.13 in 1.93 in (1971)
Month to date precipitation 0.39 1.12  
Year to date precipitation 30.10 18.98  
Snow  
Snow 0.00 in 0.00 in 0.00 in ()
Month to date snowfall 0.0 0.0  
Since 1 June snowfall 0.0 0.0  
Since 1 July snowfall 0.0 0.0  
Snow Depth 0.00 in    
Sea Level Pressure  
Sea Level Pressure 29.96 in    
Wind  
Wind Speed 8 mph (SSW)    
Max Wind Speed 16 mph    
Max Gust Speed 18 mph    
Visibility 10 miles    
Events      
T = Trace of Precipitation, MM = Missing Value Source: NWS Daily Summary

Daily Weather History Graph

Daily Weather History Graph

Search for Another Location

Airport:

Trip Planner

Search our weather history database for the weather conditions in past years. The results will help you decide how hot, cold, wet, or windy it might be!

Date:

Astronomy

Jul. 09, 2013 Rise Set
Actual Time 5:36 AM CDT 8:31 PM CDT
Civil Twilight 5:03 AM CDT 9:04 PM CDT
Nautical Twilight 4:22 AM CDT 9:45 PM CDT
Astronomical Twilight 3:34 AM CDT 10:33 PM CDT
Moon 7:01 AM CDT (7/9) 9:07 PM CDT (7/9)
Length of Visible Light 16h 00m
Length of Day
14h 55m
New Moon, 2% of the Moon is Illuminated
Jul 9
New Moon
Jul 15
First Quarter
Jul 22
Full
Jul 29
Last Quarter
Aug 6
New

Hourly Weather History & Observations

Time (CDT) Temp. Heat Index Dew Point Humidity Pressure Visibility Wind Dir Wind Speed Gust Speed Precip Events Conditions
12:54 AM 79.0 °F - 75.0 °F 88% 30.00 in 8.0 mi South 4.6 mph - N/A   Overcast
1:54 AM 78.1 °F - 73.9 °F 87% 29.99 in 8.0 mi South 5.8 mph - N/A   Mostly Cloudy
2:54 AM 77.0 °F - 73.0 °F 88% 29.99 in 8.0 mi SSW 6.9 mph - N/A   Partly Cloudy
3:54 AM 77.0 °F - 73.9 °F 90% 30.00 in 9.0 mi SSW 4.6 mph - N/A   Mostly Cloudy
4:54 AM 77.0 °F - 73.0 °F 88% 29.99 in 10.0 mi South 5.8 mph - N/A   Overcast
5:54 AM 77.0 °F - 73.0 °F 88% 29.99 in 9.0 mi SSW 5.8 mph - 0.00 in   Overcast
6:54 AM 77.0 °F - 73.0 °F 88% 29.99 in 9.0 mi SSW 5.8 mph - N/A   Partly Cloudy
7:54 AM 78.1 °F - 73.0 °F 84% 29.99 in 9.0 mi SSW 6.9 mph - N/A   Clear
8:54 AM 79.0 °F - 73.9 °F 84% 30.00 in 9.0 mi SSW 10.4 mph - 0.01 in   Mostly Cloudy
9:54 AM 79.0 °F - 73.9 °F 84% 30.00 in 10.0 mi SSW 8.1 mph - 0.01 in   Overcast
10:54 AM 84.0 °F 91.2 °F 73.9 °F 72% 29.99 in 10.0 mi SSW 10.4 mph - N/A   Clear
11:54 AM 88.0 °F 95.6 °F 73.0 °F 61% 29.98 in 10.0 mi WNW 6.9 mph - N/A   Clear
12:54 PM 88.0 °F 96.5 °F 73.9 °F 63% 29.97 in 10.0 mi SW 9.2 mph - N/A   Partly Cloudy
1:54 PM 87.1 °F 96.3 °F 75.0 °F 67% 29.96 in 10.0 mi SSW 6.9 mph - N/A   Clear
2:50 PM 84.2 °F 92.3 °F 75.2 °F 74% 29.96 in 10.0 mi SW 9.2 mph - N/A   Partly Cloudy
2:54 PM 84.9 °F 93.3 °F 75.0 °F 72% 29.94 in 10.0 mi SSW 10.4 mph - N/A   Partly Cloudy
3:54 PM 86.0 °F 95.1 °F 75.0 °F 70% 29.93 in 10.0 mi SW 10.4 mph - N/A   Clear
4:54 PM 84.9 °F 94.1 °F 75.9 °F 74% 29.92 in 10.0 mi SW 8.1 mph - N/A   Partly Cloudy
5:54 PM 87.1 °F 97.3 °F 75.9 °F 69% 29.90 in 10.0 mi SSW 10.4 mph - 0.00 in   Scattered Clouds
6:54 PM 87.1 °F 96.3 °F 75.0 °F 67% 29.89 in 10.0 mi SSW 10.4 mph - N/A   Clear
7:54 PM 84.9 °F 93.3 °F 75.0 °F 72% 29.88 in 10.0 mi SSW 8.1 mph - N/A   Clear
8:54 PM 82.0 °F 87.9 °F 73.9 °F 76% 29.88 in 10.0 mi SSW 5.8 mph - N/A   Clear
9:54 PM 82.0 °F 87.9 °F 73.9 °F 76% 29.89 in 10.0 mi SW 8.1 mph - N/A   Clear
10:54 PM 80.1 °F 84.2 °F 73.0 °F 79% 29.90 in 10.0 mi SSW 6.9 mph - N/A   Partly Cloudy
11:54 PM 81.0 °F 85.8 °F 73.0 °F 77% 29.90 in 10.0 mi SSW 6.9 mph - N/A   Overcast